Find Starlink 32640

NORAD ID: 62198 Int'l Des: 2024-229 Owner: SPXS Country: US Constellation: starlink operational
LEOCIRCULAR

Live-Position

3D-Globus wird geladen...

Über Starlink 32640

Beschreibung wird geladen...

Nächste Überflüge

Passes for default location (London). Set your location on the main map for personalized predictions.

Höhenverlauf

Loading altitude history...

Zweizeiliger Elementsatz

1 62198U 24229G 26121.84908809 .00017740 00000-0 65215-3 0 9994
2 62198 43.0017 330.3096 0001719 269.8799 90.1855 15.27604396 78696
Epoch: 1. Mai 2026 • Age: 4 hours

Aktueller Status

Höhe 487.2 km
Geschwindigkeit 7.63 km/s
Subsatellitenpunkt 42.96°N, 165.44°W
Startdatum 4. Dez. 2024
Alter 1.4 years
Typ internet

Technische Details

Klassifizierung Payload
Masse 730.00 kg
Trockenmasse 700.00 kg
Gesamtmasse 730.00 kg
Länge 0.30 m
Durchmesser 4.10 m
Spannweite 29.00 m
Form Box + pan
Hersteller SPXS
Bus-Typ Starlink V2M
Phasenstatus In Orbit
Besitzer/Staat SPXS/US

Most Searched